Tracking 20083 objects as of 12-Dec-2019
HD Live streaming from Space Station
objects crossing your sky now

LEMUR 2 LUCYBRYCE

Track LEMUR 2 LUCYBRYCE now!
10-day predictions
LEMUR 2 LUCYBRYCE is classified as:


NORAD ID: 42773
Int'l Code: 2017-036J
Perigee: 496.1 km
Apogee: 513.7 km
Inclination: 97.3 °
Period: 94.6 minutes
Semi major axis: 6875 km
RCS: Unknown
Launch date: June 23, 2017
Source: United States (US)
Launch site: SRIHARIKOTA (SRI)
aabbcc
Your satellite tracking list
Your tracking list is empty




NASA's NSSDC Master Catalog

Two Line Element Set (TLE):
1 42773U 17036J   19346.15251499  .00000781  00000-0  36445-4 0  9991
2 42773  97.3330  39.8025 0012770 323.8493  36.1879 15.22669901137103
Source of the keplerian elements: AFSPC